Regional Weather Roundup
Issued by NWS

Home | Current Version | Previous Version | Text Only | Print | Product List | Glossary Off
Versions: 1 2 3 4 5 6 7 8 9 10 11 12 13 14 15 16 17 18 19 20 21 22 23 24 25 26 27 28 29 30 31 32 33 34 35 36 37 38 39 40 41 42 43 44 45 46 47 48 49 50

000
ASUS45 KCYS 201910
RWRWY

WYOMING REGIONAL WEATHER ROUNDUP
NATIONAL WEATHER SERVICE CHEYENNE WY
100 PM MDT MON OCT 20 2014

NOTE:  "FAIR" INDICATES FEW OR NO CLOUDS BELOW 12,000 FEET
WITH NO SIGNIFICANT WEATHER AND/OR OBSTRUCTIONS TO VISIBILITY.

WYZ001-202000-
YELLOWSTONE NATIONAL PARK

CITY           SKY/WX    TMP DP  RH WIND       PRES   REMARKS
LK YELLOWSTONE   N/A     50  31  48 E5        30.20F
W YELLOWSTONE  NOT AVBL

$$
WYZ002>013-054>058-071-098>099-202000-
NORTHERN WYOMING

CITY           SKY/WX    TMP DP  RH WIND       PRES   REMARKS
JACKSON        SUNNY     55  27  33 CALM      30.14F
CODY           SUNNY    N/A N/A N/A SW9       29.99F
GREYBULL       SUNNY     67  32  27 E6        29.97F
WORLAND        SUNNY     68  35  29 CALM      29.98F
SHERIDAN       SUNNY     72  27  18 CALM      29.94F
BUFFALO        SUNNY     74  26  16 VRB3      29.99F
GILLETTE       SUNNY     75  30  19 SW16      29.96F
HULETT         FAIR      77  34  20 SW14      29.99
NEWCASTLE      FAIR      70  36  28 S8        30.03

$$
WYZ014>020-022>026-101>103-202000-
CENTRAL WYOMING

CITY           SKY/WX    TMP DP  RH WIND       PRES   REMARKS
BIG PINEY      SUNNY     61  26  26 S7        30.18F
PINEDALE       CLEAR     61  28  29 S9        30.19F
DUBOIS         FAIR      63  23  22 W17       30.13S
LANDER         SUNNY     65  32  29 VRB3      30.05F
RIVERTON       SUNNY     64  31  28 N6        30.07F
CASPER         SUNNY     73  33  23 SW18G26   30.06F
DOUGLAS        SUNNY     74  34  23 CALM      30.05F

$$
WYZ021-027>030-104>119-202000-
SOUTHERN WYOMING

CITY           SKY/WX    TMP DP  RH WIND       PRES   REMARKS
EVANSTON       SUNNY     66  31  27 SW14      30.16F
KEMMERER       PTCLDY    63  30  29 S5        30.18F
FORT BRIDGER   FAIR      61  32  34 NE3       30.20F
ROCK SPRINGS   SUNNY     62  32  32 N3        30.17F
DIXON          FAIR      69  35  28 S13       30.20F
RAWLINS        SUNNY     68  33  27 W18       30.17F
SARATOGA       FAIR      68  34  28 SW3       30.19F
LARAMIE        SUNNY     64  32  30 W5        30.18F
CHEYENNE       SUNNY     70  33  25 S16G24    30.15F
TORRINGTON     SUNNY     75  42  30 S8        30.03F
PINE BLUFFS    FAIR      72  34  25 S15G22    30.12F

$$



USA.gov is the U.S. government's official web portal to all federal, state and local government web resources and services.